Regional Weather Roundup
Issued by NWS Little Rock, AR

Home | Current Version | Previous Version | Graphics & Text | Print | Product List | Glossary On
Versions: 1 2 3 4 5 6 7 8 9 10 11 12 13 14 15 16 17 18 19 20 21 22 23 24 25 26 27 28 29 30 31 32 33 34 35 36 37 38 39 40 41 42 43 44 45 46 47 48 49 50
000
ASUS44 KLZK 061805
RWRLZK

WEATHER ROUNDUP FOR ARKANSAS
NATIONAL WEATHER SERVICE LITTLE ROCK AR
100 PM CDT WED MAY 06 2015

NOTE: "FAIR" INDICATES FEW OR NO CLOUDS BELOW 12,000 FEET WITH NO
SIGNIFICANT WEATHER AND/OR OBSTRUCTIONS TO VISIBILITY.

ARZ001-003-010-029-061900-
NORTHWEST ARKANSAS

CITY           SKY/WX    TMP DP  RH WIND       PRES   REMARKS
FAYETTEVILLE   FAIR      75  66  73 S21G28    30.04F
6HR MIN TEMP:  62; 6HR MAX TEMP:  76; 6HR PCP:  0.17;

FORT SMITH     FAIR      78  56  46 SE8       30.02S
6HR MIN TEMP:  66; 6HR MAX TEMP:  78; 6HR PCP:  0.02;

HARRISON       PTSUNNY   71  61  70 S10       30.08F
6HR MIN TEMP:  67; 6HR MAX TEMP:  75; 6HR PCP:  0.01;

BENTONVILLE    FAIR      75  57  53 SE16G22   30.03F
6HR MIN TEMP:  59; 6HR MAX TEMP:  75; 6HR PCP:  0.65;

ROGERS         FAIR      74  60  61 SE16G23   30.04F
6HR MIN TEMP:  58; 6HR MAX TEMP:  74;

SILOAM SPGS    FAIR      75  55  50 S16G23    30.03F
6HR MIN TEMP:  59; 6HR MAX TEMP:  75; 6HR PCP:  0.43;

SPRINGDALE     MOSUNNY   77  55  47 SE12G23   30.05F
$$

ARZ004-005-016-061900-
NORTH CENTRAL ARKANSAS

CITY           SKY/WX    TMP DP  RH WIND       PRES   REMARKS
BATESVILLE     PTSUNNY   81  57  44 SE12      30.09F
6HR MIN TEMP:  66; 6HR MAX TEMP:  81;

FLIPPIN        FAIR      81  55  41 S8G17     30.05F
6HR MIN TEMP:  63; 6HR MAX TEMP:  81;

MTN HOME       FAIR      80  56  43 S12G18    30.07F
6HR MIN TEMP:  64; 6HR MAX TEMP:  80;

$$

ARZ040-041-061900-
WEST CENTRAL ARKANSAS

CITY           SKY/WX    TMP DP  RH WIND       PRES   REMARKS
MENA           FAIR      81  54  39 S5        30.03F
MOUNT IDA      FAIR      77  58  51 SE13G24   30.03F
6HR MIN TEMP:  68; 6HR MAX TEMP:  78;

$$

ARZ009-017-025-026-028-061900-
NORTHEAST ARKANSAS

CITY           SKY/WX    TMP DP  RH WIND       PRES   REMARKS
CORNING          N/A     84  54  34 S15       30.10F
JONESBORO      PTSUNNY   81  53  37 S12       30.09F
6HR MIN TEMP:  56; 6HR MAX TEMP:  83;

NEWPORT        FAIR      84  55  36 SE14G20   30.10F
6HR MIN TEMP:  64; 6HR MAX TEMP:  85;

WALNUT RIDGE   FAIR      84  54  34 S16       30.09F
6HR MIN TEMP:  61; 6HR MAX TEMP:  84;

BLYTHEVILLE    FAIR      83  54  36 S14G23    30.11F
6HR MIN TEMP:  65; 6HR MAX TEMP:  84;

$$

ARZ022-023-033-042-044-061900-
CENTRAL ARKANSAS

CITY           SKY/WX    TMP DP  RH WIND       PRES   REMARKS
LITTLE ROCK    PTSUNNY   82  56  40 SE13      30.07F
6HR MIN TEMP:  65; 6HR MAX TEMP:  82;

N LITTLE ROCK  PTSUNNY   80  60  51 SE16G22   30.07F
6HR MIN TEMP:  67; 6HR MAX TEMP:  80;

JACKSONVILLE   FAIR      81  57  44 SE14G20   30.07F
6HR MIN TEMP:  62; 6HR MAX TEMP:  83;

SEARCY         PTSUNNY   81  60  48 S10       30.09F
6HR MIN TEMP:  62; 6HR MAX TEMP:  82;

HOT SPRINGS    FAIR      80  57  45 S15G22    30.05F
6HR MIN TEMP:  67; 6HR MAX TEMP:  80;

RUSSELLVILLE   FAIR      81  56  42 S12G18    30.04F
6HR MIN TEMP:  68; 6HR MAX TEMP:  82;

CLINTON        FAIR      81  57  44 SE7G17    30.08F
$$

ARZ036-061900-
EAST ARKANSAS

CITY           SKY/WX    TMP DP  RH WIND       PRES   REMARKS
WEST MEMPHIS   FAIR      82  56  40 S13G22    30.10F
6HR MIN TEMP:  62; 6HR MAX TEMP:  82;

$$

ARZ050-053-066-070-073-061900-
SOUTHWEST ARKANSAS

CITY           SKY/WX    TMP DP  RH WIND       PRES   REMARKS
ARKADELPHIA    FAIR      83  63  50 SE9       30.05F
6HR MIN TEMP:  61; 6HR MAX TEMP:  83; 6HR PCP: TRACE;

CAMDEN         FAIR      82  57  42 NE14G26   30.05F
TEXARKANA      PTSUNNY   78  60  53 S9G20     30.03F
6HR MIN TEMP:  66; 6HR MAX TEMP:  80;

EL DORADO      FAIR      82  60  47 SE16G26   30.06F
6HR MIN TEMP:  60; 6HR MAX TEMP:  83;

DE QUEEN       PTSUNNY   76  60  57 S6        30.00F
6HR MIN TEMP:  67; 6HR MAX TEMP:  80; 6HR PCP: TRACE;

$$

ARZ056-057-069-061900-
SOUTHEAST ARKANSAS

CITY           SKY/WX    TMP DP  RH WIND       PRES   REMARKS
PINE BLUFF     FAIR      82  59  45 S14       30.07F
6HR MIN TEMP:  61; 6HR MAX TEMP:  83;

STUTTGART      FAIR      82  57  42 SE13      30.09F
6HR MIN TEMP:  64; 6HR MAX TEMP:  84;

MONTICELLO     FAIR      80  59  48 S9        30.07F
6HR MIN TEMP:  60; 6HR MAX TEMP:  82;


$$





USA.gov is the U.S. government's official web portal to all federal, state and local government web resources and services.